| Date | Time | Temp. (oF) | Dew Point (oF) | Rel. Hum. (%) | Press. (in.) | Wind Dir. | Wind Speed (mph) | Hourly Rainfall (in.) |
|
|---|---|---|---|---|---|---|---|---|---|
| 1 | 01/08 | 00:00 | 7 | -7 | 50 | 30.40 | NNW | 9 | 0.00 |
| 2 | 01/07 | 23:00 | 8 | -7 | 49 | 30.38 | WNW | 10 | 0.00 |
| 3 | 01/07 | 22:00 | 9 | -6 | 48 | 30.36 | N | 10 | 0.00 |
| 4 | 01/07 | 21:00 | 10 | -4 | 50 | 30.32 | W | 9 | 0.00 |
| 5 | 01/07 | 20:00 | 12 | -3 | 48 | 30.30 | WNW | 10 | 0.00 |
| 6 | 01/07 | 19:00 | 13 | -4 | 44 | 30.25 | N | 16 | 0.00 |
| 7 | 01/07 | 18:00 | 14 | -5 | 40 | 30.22 | W | 13 | 0.00 |
| 8 | 01/07 | 17:00 | 15 | 3 | 61 | 30.17 | WNW | 8 | 0.00 |
| 9 | 01/07 | 16:00 | 15 | 4 | 62 | 30.13 | WNW | 5 | 0.00 |
| 10 | miss | miss | miss | miss | miss | miss | miss | miss | |
| 11 | 01/07 | 15:23 | 16 | 7 | 70 | 30.11 | WNW | 10 | 0.00 |
| 12 | miss | miss | miss | miss | miss | miss | miss | miss | |
| 13 | 01/07 | 15:21 | 17 | 7 | 66 | 30.11 | WNW | 16 | 0.00 |
| 14 | miss | miss | miss | miss | miss | miss | miss | miss | |
| 15 | 01/07 | 15:19 | 17 | 5 | 61 | 30.11 | NNW | 12 | 0.00 |
| 16 | miss | miss | miss | miss | miss | miss | miss | miss | |
| 17 | 01/07 | 15:17 | 18 | 4 | 56 | 30.11 | WNW | 12 | 0.00 |
| 18 | miss | miss | miss | miss | miss | miss | miss | miss | |
| 19 | 01/07 | 15:15 | 18 | 2 | 49 | 30.10 | W | 15 | 0.00 |
| 20 | miss | miss | miss | miss | miss | miss | miss | miss | |
| 21 | 01/07 | 15:13 | 18 | 1 | 47 | 30.10 | N | 16 | 0.00 |
| 22 | miss | miss | miss | miss | miss | miss | miss | miss | |
| 23 | 01/07 | 15:11 | 19 | 2 | 48 | 30.09 | N | 5 | 0.00 |
| 24 | miss | miss | miss | miss | miss | miss | miss | miss | |
| 25 | 01/07 | 15:09 | 19 | 2 | 47 | 30.09 | WNW | 11 | 0.00 |
| 26 | miss | miss | miss | miss | miss | miss | miss | miss | |
| 27 | 01/07 | 15:09 | 19 | 2 | 47 | 30.09 | WNW | 11 | 0.00 |
| 28 | miss | miss | miss | miss | miss | miss | miss | miss | |
| 29 | 01/07 | 15:09 | 19 | 2 | 47 | 30.09 | WNW | 11 | 0.00 |
| 30 | miss | miss | miss | miss | miss | miss | miss | miss | |
| 31 | 01/07 | 15:09 | 19 | 2 | 47 | 30.09 | WNW | 11 | 0.00 |
| 32 | miss | miss | miss | miss | miss | miss | miss | miss | |
| 33 | 01/07 | 15:09 | 19 | 2 | 47 | 30.09 | WNW | 11 | 0.00 |
| 34 | 01/07 | 15:00 | 19 | 2 | 47 | 30.08 | N | 12 | 0.00 |
| 35 | 01/07 | 14:00 | 19 | 2 | 47 | 30.06 | S | 6 | 0.00 |
| 36 | 01/07 | 13:00 | 18 | 4 | 54 | 30.05 | WNW | 8 | 0.00 |
| 37 | 01/07 | 12:00 | 18 | 6 | 61 | 30.07 | NNW | 20 | 0.00 |
| 38 | 01/07 | 11:00 | 19 | 5 | 54 | 30.07 | WSW | 20 | 0.00 |
| 39 | 01/07 | 10:00 | 18 | 5 | 57 | 30.07 | W | 13 | 0.00 |
| 40 | 01/07 | 09:00 | 18 | 9 | 70 | 30.06 | SW | 5 | 0.00 |
| 41 | 01/07 | 08:00 | 18 | 13 | 83 | 30.04 | WNW | 7 | 0.00 |
| 42 | 01/07 | 07:00 | 15 | 14 | 97 | 30.00 | WNW | 3 | 0.00 |
| 43 | 01/07 | 06:00 | 13 | 11 | 95 | 29.99 | SSW | 0 | 0.00 |
| 44 | 01/07 | 05:00 | 15 | 13 | 95 | 29.97 | W | 0 | 0.00 |
| 45 | 01/07 | 04:00 | 14 | 13 | 97 | 29.98 | WSW | 0 | 0.00 |
| 46 | 01/07 | 03:00 | 11 | 10 | 98 | 30.01 | SW | 2 | 0.00 |
| 47 | 01/07 | 02:00 | 12 | 11 | 98 | 30.04 | SSW | 2 | 0.00 |
| 48 | 01/07 | 01:00 | 8 | 7 | 98 | 30.04 | SSW | 0 | 0.00 |
| 49 | 01/07 | 00:00 | 7 | 6 | 98 | 30.05 | SSW | 0 | 0.00 |
| 50 | 01/06 | 23:00 | 8 | 7 | 98 | 30.07 | SSW | 0 | 0.00 |
| 51 | 01/06 | 22:00 | 10 | 9 | 99 | 30.07 | NNE | 0 | 0.00 |
| 52 | 01/06 | 21:00 | 12 | 11 | 98 | 30.11 | S | 0 | 0.00 |
| 53 | 01/06 | 20:00 | 14 | 13 | 97 | 30.11 | S | 0 | 0.00 |
| 54 | 01/06 | 19:00 | 16 | 15 | 96 | 30.12 | SSW | 0 | 0.00 |
| 55 | 01/06 | 18:00 | 18 | 16 | 94 | 30.11 | N | 0 | 0.00 |
| 56 | 01/06 | 17:00 | 20 | 17 | 91 | 30.11 | SSW | 2 | 0.00 |
| 57 | 01/06 | 16:00 | 21 | 18 | 90 | 30.09 | SSW | 0 | 0.00 |
| 58 | 01/06 | 15:00 | 22 | 19 | 90 | 30.12 | W | 0 | 0.01 |
| 59 | 01/06 | 14:00 | 22 | 19 | 90 | 30.11 | S | 0 | 0.00 |
| 60 | 01/06 | 13:00 | 20 | 17 | 91 | 30.13 | S | 2 | 0.00 |
| 61 | 01/06 | 12:00 | 20 | 17 | 91 | 30.17 | S | 0 | 0.00 |
| 62 | 01/06 | 11:00 | 18 | 16 | 92 | 30.24 | S | 3 | 0.01 |
| 63 | 01/06 | 10:00 | 17 | 15 | 93 | 30.30 | SSE | 1 | 0.00 |
| 64 | 01/06 | 09:00 | 15 | 14 | 96 | 30.32 | SSE | 4 | 0.03 |
| 65 | 01/06 | 08:00 | 15 | 13 | 94 | 30.34 | S | 0 | 0.04 |
| 66 | 01/06 | 07:00 | 15 | 13 | 93 | 30.32 | ESE | 3 | 0.01 |
| 67 | 01/06 | 06:00 | 15 | 11 | 87 | 30.37 | ENE | 2 | 0.00 |
| 68 | 01/06 | 05:00 | 17 | 3 | 56 | 30.39 | WSW | 2 | 0.00 |
| 69 | 01/06 | 04:00 | 17 | 3 | 55 | 30.38 | ENE | 0 | 0.00 |
| 70 | 01/06 | 03:00 | 17 | 3 | 55 | 30.40 | NNW | 0 | 0.00 |
| 71 | 01/06 | 02:00 | 17 | 3 | 55 | 30.41 | N | 5 | 0.00 |
| 72 | 01/06 | 01:00 | 17 | 2 | 53 | 30.43 | N | 1 | 0.00 |
| 73 | 01/06 | 00:00 | 19 | 3 | 51 | 30.44 | N | 2 | -0.10 |